User: anonymous
Location: Unspecified
(0.0000°N, 0.0000°E)
Time: 23:58:07
(UTC+00:00)
Language:

USA 184 - Orbit

View from above orbital plane
View from above orbital plane
View from above satellite
View from above satellite

Ground track
Ground track

The orbit data is extracted from the following two-line orbital elements,

1 29249U 06027A   14088.70364595 0.00000603  00000-0  00000-0 0    03
2 29249  63.5743  71.2598 7002126 268.1201  17.6136  2.00613484    08
Epoch (UTC): 29 March 2014 16:53:15
Eccentricity: 0.7002126
inclination: 63.5743°
perigee height: 1583 km
apogee height: 38772 km
right ascension of ascending node: 71.2598°
argument of perigee: 268.1201°
revolutions per day: 2.00613484
mean anomaly at epoch: 17.6136°
orbit number at epoch: 0

The dashed part of the orbit path shows where the satellite is in the earth's shadow,  

DLR